YAMAL 601

Last updated on Fri Dec 19 2025 00:02:52 GMT+0000 (Coordinated Universal Time)

1 44307U 19031A 25352.63498845 .00000145 00000+0 00000+0 0 9994 2 44307 0.0307 276.9266 0002198 356.7910 91.3787 1.00273105 24100
UTC large
Height (km)
Speed (km/s)
/
Latitude / Longitude
Inclination (degrees)
Orbital Period (minutes)
Azimuth
Elevation
Range (km)
Doppler Factor

Next 0 passes for location: London (51.5072 / 0.1276)

Sorry there are no passes over London.